Regional Weather Roundup
Issued by NWS Upton, NY

Current Version | Previous Version | Text Only | Print | Product List | Glossary Off
Versions: 1 2 3 4 5 6 7 8 9 10 11 12 13 14 15 16 17 18 19 20 21 22 23 24 25 26 27 28 29 30 31 32 33 34 35 36 37 38 39 40 41 42 43 44 45 46 47 48 49 50
768 ASUS41 KOKX 280604 RWROKX REGIONAL WEATHER ROUNDUP NATIONAL WEATHER SERVICE NEW YORK NY 200 AM EDT SUN AUG 28 2016 NOTE: "FAIR" INDICATES FEW OR NO CLOUDS BELOW 12,000 FEET WITH NO SIGNIFICANT WEATHER AND/OR OBSTRUCTIONS TO VISIBILITY. NYZ071-072-176-178-NJZ106-104-280700- NEW YORK CITY METRO AREA CITY SKY/WX TMP DP RH WIND PRES REMARKS Central Park PTCLDY 74 61 63 S3 30.24F LaGuardia APRT PTCLDY 77 64 64 S5 30.21F Kennedy INTL PTCLDY 74 65 73 E3 30.22F Newark/Liberty MOCLDY 74 65 73 CALM 30.21F Bronx Bot Gard N/A 72 63 73 E1 30.23F Wall St Helipt CLEAR 75 66 73 CALM 30.22F Teterboro PTCLDY 73 62 68 CALM 30.20F $$ NYZ177-179-078>081-280700- LONG ISLAND NEW YORK CITY SKY/WX TMP DP RH WIND PRES REMARKS Farmingdale CLEAR 70 67 90 CALM 30.22F MacArthur/ISP CLEAR 68 66 93 CALM 30.22F Shirley CLEAR 65 64 97 CALM 30.23F Riverhead NOT AVBL Westhampton CLEAR 60 56 86 CALM 30.25F Southampton N/A 68 66 94 CALM 30.20S Bridgehampton N/A 68 64 88 CALM 30.24S East Hampton FAIR 61 59 94 CALM 30.24S Montauk N/A 69 66 90 CALM 30.26S $$ NYZ052-065-067-280700- HUDSON VALLEY CITY SKY/WX TMP DP RH WIND PRES REMARKS White Plains FAIR 66 60 81 CALM 30.22F Newburgh CLEAR 68 63 83 CALM 30.24S Montgomery FAIR 65 63 93 CALM 30.22F Poughkeepsie FAIR 64 62 93 CALM 30.21S Albany FAIR 68 66 93 CALM 30.21S $$ NJZ001-105-106-008-010-013-015-019>022-104-280700- NEW JERSEY CITY SKY/WX TMP DP RH WIND PRES REMARKS Newark/Liberty MOCLDY 74 65 73 CALM 30.21F Teterboro PTCLDY 73 62 68 CALM 30.20F Caldwell CLEAR 68 61 78 CALM 30.22F Morristown CLEAR 61 61 100 CALM 30.22F Somerville CLEAR 64 61 90 CALM 30.21F Linden FAIR 73 68 86 CALM 30.23F Sussex FAIR 63 62 97 CALM 30.23F Abdover N/A 62 60 93 CALM 30.24F Trenton CLEAR 68 61 78 N3 30.21F Millville CLEAR 67 67 100 CALM 30.20F FOG Atlantic City CLEAR 69 66 90 E6 30.20F Wrightstown CLEAR 64 64 100 CALM 30.19F Toms River CLOUDY 61 58 90 CALM 30.22S Belmar CLEAR 70 68 93 CALM 30.22F $$ PAZ047>061-062-071-280700- EASTERN PENNSYLVANIA CITY SKY/WX TMP DP RH WIND PRES REMARKS Philadelphia PTCLDY 71 68 90 E5 30.21F Allentown PTCLDY 69 61 75 NE3 30.23S Scranton FAIR 69 61 75 CALM 30.22F $$ CTZ002-004>006-009-010-012-RIZ004-006-007-MAZ004-011-015-280700- SOUTHERN NEW ENGLAND IN CT CITY SKY/WX TMP DP RH WIND PRES REMARKS Bradley INTL FAIR 69 60 73 S6 30.23S Hartford FAIR 72 62 71 CALM 30.22F Danbury FAIR 62 59 90 SW3 30.25S Wtrbury/Oxford N/A 66 55 68 S3 30.26S Bridgeport FAIR 74 66 76 CALM 30.22F Meriden FAIR 66 62 87 CALM 30.23F New Haven FAIR 67 63 87 CALM 30.23F Chester FAIR 68 66 94 CALM 30.25F Groton FAIR 69 65 86 CALM 30.24S Wilimantic FAIR 64 63 96 CALM 30.26S IN RI CITY SKY/WX TMP DP RH WIND PRES REMARKS Providence MOCLDY 69 66 90 CALM 30.25F Block Island FAIR 68 64 87 SE5 30.26S Westerly FAIR 65 61 87 CALM 30.26S IN MA CITY SKY/WX TMP DP RH WIND PRES REMARKS Boston FAIR 68 64 87 SE5 30.25F Worcester FAIR 65 59 81 S5 30.27S Westfield FAIR 67 64 90 CALM 30.23S Provincetown FAIR 60 57 89 CALM 30.27S Nantucket FOG 60 59 96 CALM 30.25F VSB 1 $$ ANZ330-335-338-340-345-350-353-355-280700- COASTAL MARINE OBSERVATIONS STATION/POSITION TIME SKY/WX TEMP WIND PRES VSBY WAVE AIR SEA DIR/SP/G HT/PER (UTC) (F) (DEG/KT/KT) (MB) (MI) (FT/S) NY HARB ENTRANCE 0450 75 75 130/ 6/ 8 1023.2 2/10 20S FIRE ISLAND 0450 75 74 110/ 8/ 10 1023.3 3/ 9 GREAT SOUTH BAY 0515 75 79 130/ 8/ 10 N/A 23 SSW MONTAUK P 0450 75 77 130/ 8/ 8 1024.3 2/ 8 15 E BARNEGAT LI 0500 76 N/A 3/10 HUDSON CANYON 0450 78 78 1023.1 3/ 8 KINGS POINT 0500 73 76 1023.5 EXECUTION ROCKS 0500 74 140/ 4/ 4 N/A CENTRAL LI SOUND NOT AVBL EASTERN LI SOUND 0500 71 71 100/ 6/ 6 N/A ROBBINS REEF 0500 75 170/ 5/ 5 1022.9 $$ >>>>>>>>>>>>>>>>>>>>>>>>>>>> KEY <<<<<<<<<<<<<<<<<<<<<<<<<<< > < > SKY/WX - Sky Condition/Present Weather < > TMP - Temperature in Fahrenheit < > DP - Dew Point in Fahrenheit < > RH - Relative Humidity in Percent < > WIND - Direction (from) and Speed in MPH < > PRES - Mean Sea Level Pressure (inches of Hg) < > WCI - Wind Chill Index < > VSB - VISIBILITY IN MILES < > HX - HEAT INDEX < > TC - TEMPERATURE IN CELSIUS < > VRB - VARIABLE WIND DIRECTION < > < >>>>>>>>>>>>>>>>>>>>>>>>>>>> KEY <<<<<<<<<<<<<<<<<<<<<<<<<<<

USA.gov is the U.S. government's official web portal to all federal, state and local government web resources and services.